London, United Kingdom

2:23 AM GMT on January 20, 2017 (GMT +0000)
Heathrow

Weather History for EGLL - June, 2013

Change the Weather History Date:

Sunday, June 23, 2013

  Actual Average Record
Temperature  
Mean Temperature 59 °F -  
Max Temperature 65 °F 70 °F 86 °F (2005)
Min Temperature 53 °F 54 °F 50 °F (2006)
Degree Days  
Heating Degree Days 6    
Growing Degree Days 9 (Base 50)    
Moisture  
Dew Point 51 °F    
Average Humidity 73    
Maximum Humidity 94    
Minimum Humidity 48    
Precipitation  
Precipitation 0.01 in - - ()
Sea Level Pressure  
Sea Level Pressure 29.82 in    
Wind  
Wind Speed 15 mph ()    
Max Wind Speed 22 mph    
Max Gust Speed -    
Visibility 6.7 miles    
Events Rain    
Averages and records for this station are not official NWS values.
T = Trace of Precipitation, MM = Missing Value Source: Averaged Metar Reports

Daily Weather History Graph

Daily Weather History Graph

Search for Another Location

Airport or City:

Trip Planner

Search our weather history database for the weather conditions in past years. The results will help you decide how hot, cold, wet, or windy it might be!

Date:

Astronomy

Jun. 23, 2013 Rise Set
Actual Time 4:45 AM BST 9:22 PM BST
Civil Twilight 3:57 AM BST 10:10 PM BST
Nautical Twilight 2:43 AM BST 11:24 PM BST
Astronomical Twilight 1:36 AM BST 12:31 AM BST
Moon 9:10 PM BST (6/23) 4:54 AM BST (6/23)
Length of Visible Light 18h 13m
Length of Day
16h 37m
Full, 100% of the Moon is Illuminated
Jun 23
Full
Jun 23
Full
Jun 30
Last Quarter
Jul 8
New
Jul 16
First Quarter

Hourly Weather History & Observations

Time (BST) Temp. Dew Point Humidity Pressure Visibility Wind Dir Wind Speed Gust Speed Precip Events Conditions
12:20 AM 57.2 °F 51.8 °F 82% 29.68 in 6.2 mi SW 15.0 mph - N/A   Scattered Clouds
12:50 AM 56 °F 51 °F 80% 29.68 in 19 mi SW 15.0 mph - -   Scattered Clouds
12:50 AM 55.4 °F 51.8 °F 88% 29.68 in 6.2 mi SW 16.1 mph - N/A   Scattered Clouds
1:20 AM 57.2 °F 51.8 °F 82% 29.68 in 6.2 mi SW 16.1 mph - N/A   Scattered Clouds
1:50 AM 55.4 °F 51.8 °F 88% 29.68 in 6.2 mi SW 15.0 mph - N/A   Scattered Clouds
2:20 AM 55.4 °F 51.8 °F 88% 29.68 in 6.2 mi WSW 15.0 mph - N/A   Partly Cloudy
2:50 AM 55.4 °F 51.8 °F 88% 29.68 in 5.6 mi WSW 11.5 mph - N/A Rain Light Rain Showers
3:20 AM 55.4 °F 51.8 °F 88% 29.68 in 6.2 mi SW 15.0 mph - N/A   Scattered Clouds
3:50 AM 55 °F 53 °F 88% 29.68 in 6 mi SW 17.3 mph - - Rain Rain
3:50 AM 55.4 °F 51.8 °F 88% 29.68 in 5.6 mi WSW 15.0 mph - N/A Rain Light Rain Showers
4:20 AM 55.4 °F 51.8 °F 88% 29.68 in 6.2 mi SW 12.7 mph - N/A   Partly Cloudy
4:50 AM 55.4 °F 51.8 °F 88% 29.68 in 6.2 mi WSW 15.0 mph - N/A   Partly Cloudy
5:20 AM 57.2 °F 51.8 °F 82% 29.71 in 6.2 mi WSW 15.0 mph - N/A   Partly Cloudy
5:50 AM 57.2 °F 51.8 °F 82% 29.71 in 6.2 mi WSW 11.5 mph - N/A   Scattered Clouds
6:20 AM 57.2 °F 51.8 °F 82% 29.71 in 6.2 mi WSW 13.8 mph - N/A   Scattered Clouds
6:50 AM 58 °F 52 °F 74% 29.73 in 19 mi WSW 15.0 mph - -  
6:50 AM 57.2 °F 51.8 °F 82% 29.71 in 6.2 mi WSW 13.8 mph - N/A   Partly Cloudy
7:20 AM 59.0 °F 51.8 °F 77% 29.74 in 6.2 mi West 17.3 mph - N/A   Partly Cloudy
7:50 AM 59.0 °F 51.8 °F 77% 29.74 in 6.2 mi WSW 16.1 mph - N/A   Scattered Clouds
8:20 AM 60.8 °F 51.8 °F 72% 29.74 in 6.2 mi West 19.6 mph - N/A   Mostly Cloudy
8:50 AM 62.6 °F 51.8 °F 68% 29.77 in 6.2 mi West 18.4 mph - N/A   Scattered Clouds
9:20 AM 60.8 °F 51.8 °F 72% 29.77 in 6.2 mi West 18.4 mph - N/A   Scattered Clouds
9:50 AM 61 °F 51 °F 61% 29.78 in 22 mi West 15.0 mph - - Rain Light Rain Showers
9:50 AM 60.8 °F 50.0 °F 68% 29.77 in 6.2 mi West 16.1 mph - N/A   Mostly Cloudy
10:20 AM 62.6 °F 50.0 °F 63% 29.77 in 6.2 mi West 16.1 mph - N/A   Mostly Cloudy
10:50 AM 60.8 °F 50.0 °F 68% 29.80 in 6.2 mi West 16.1 mph - N/A   Mostly Cloudy
11:20 AM 62.6 °F 48.2 °F 59% 29.80 in 6.2 mi West 20.7 mph - N/A   Mostly Cloudy
11:50 AM 64.4 °F 50.0 °F 59% 29.80 in 6.2 mi West 20.7 mph - N/A   Mostly Cloudy
12:20 PM 62.6 °F 50.0 °F 63% 29.80 in 6.2 mi West 20.7 mph - N/A   Scattered Clouds
12:50 PM 62 °F 47 °F 48% 29.82 in 34 mi West 20.7 mph - - Rain Rain
12:50 PM 62.6 °F 48.2 °F 59% 29.83 in 6.2 mi West 20.7 mph - N/A   Mostly Cloudy
1:20 PM 62.6 °F 48.2 °F 59% 29.83 in 6.2 mi West 19.6 mph - N/A   Mostly Cloudy
1:50 PM 62.6 °F 50.0 °F 63% 29.83 in 6.2 mi West 18.4 mph - N/A   Mostly Cloudy
2:20 PM 62.6 °F 50.0 °F 63% 29.86 in 6.2 mi West 18.4 mph - N/A   Mostly Cloudy
2:50 PM 62.6 °F 50.0 °F 63% 29.86 in 6.2 mi West 19.6 mph - N/A   Mostly Cloudy
3:20 PM 62.6 °F 50.0 °F 63% 29.86 in 6.2 mi West 19.6 mph - N/A   Mostly Cloudy
3:50 PM 63 °F 48 °F 48% 29.87 in 25 mi West 17.3 mph - -   Mostly Cloudy
3:50 PM 62.6 °F 48.2 °F 59% 29.86 in 6.2 mi West 20.7 mph - N/A   Mostly Cloudy
4:20 PM 64.4 °F 50.0 °F 59% 29.89 in 6.2 mi West 20.7 mph - N/A   Mostly Cloudy
4:50 PM 62.6 °F 50.0 °F 63% 29.89 in 6.2 mi West 20.7 mph - N/A   Mostly Cloudy
5:20 PM 62.6 °F 50.0 °F 63% 29.89 in 6.2 mi West 20.7 mph - N/A   Scattered Clouds
5:50 PM 62.6 °F 50.0 °F 63% 29.89 in 6.2 mi West 21.9 mph - N/A   Scattered Clouds
6:20 PM 60.8 °F 50.0 °F 68% 29.92 in 6.2 mi West 20.7 mph - N/A   Mostly Cloudy
6:50 PM 61 °F 49 °F 55% 29.92 in 31 mi West 19.6 mph - -   Scattered Clouds
6:50 PM 60.8 °F 50.0 °F 68% 29.92 in 6.2 mi West 20.7 mph - N/A   Scattered Clouds
7:20 PM 60.8 °F 50.0 °F 68% 29.92 in 6.2 mi West 18.4 mph - N/A   Partly Cloudy
7:50 PM 60.8 °F 50.0 °F 68% 29.92 in 6.2 mi West 18.4 mph - N/A   Scattered Clouds
8:20 PM 55.4 °F 51.8 °F 88% 29.95 in 6.2 mi WNW 13.8 mph - N/A Rain Light Rain Showers
8:50 PM 55.4 °F 51.8 °F 88% 29.98 in 6.2 mi West 12.7 mph - N/A Rain Light Rain Showers
9:20 PM 55.4 °F 51.8 °F 88% 29.98 in 6.2 mi West 15.0 mph - N/A   Mostly Cloudy
9:50 PM 54 °F 51 °F 85% 30.00 in 22 mi West 10.4 mph - - Rain Rain
9:50 PM 53.6 °F 51.8 °F 94% 30.01 in 6.2 mi West 12.7 mph - N/A   Scattered Clouds
10:20 PM 55.4 °F 50.0 °F 82% 30.01 in 6.2 mi West 11.5 mph - N/A   Partly Cloudy
10:50 PM 55.4 °F 50.0 °F 82% 30.01 in - WNW 11.5 mph - N/A   Clear
11:20 PM 53.6 °F 48.2 °F 82% 30.04 in - WNW 10.4 mph - N/A   Clear
11:50 PM 53.6 °F 48.2 °F 82% 30.04 in - WNW 10.4 mph - N/A   Clear